This demonstration page uses our WeatherBlox Daily Observations layout. Learn more.

Left ArrowRight Arrow

31.31129, -92.44514

Hourly Observations for December 6, 2021

Temp ( °F °C ) Dew Point ( °F °C ) Humidity (%) Winds ( mph kmh ) Pressure ( in mb ) Visibility ( mi km ) Precip ( " mm )
12:44 am 00:44 Cloudy 68 20 65 18.3 90 90 SSE 6 9 29.94 1014 10 16 0.00 0.00
12:53 am 00:53 Cloudy 69 20.6 65 18.3 87 87 SSE 5 7 29.95 1014 10 16 0.00 0.00
1:53 am 01:53 Cloudy 70 21.1 66 18.9 87 87 S 7 11 29.95 1014 10 16 0.00 0.00
2:53 am 02:53 Cloudy 70 21.1 67 19.4 90 90 S 9 15 29.95 1014 10 16 0.00 0.00
3:53 am 03:53 Cloudy 71 21.7 67 19.4 87 87 SSW 6 9 29.97 1015 9 14 0.00 0.00
4:22 am 04:22 Cloudy 71 21.7 68 20 90 90 S 7 11 29.95 1014 10 16 0.00 0.00
4:49 am 04:49 Cloudy 72 22 68 20 88 88 S 8 13 29.95 1014 9 14 0.00 0.00
4:53 am 04:53 Cloudy with Light Rain 72 22.2 68 20 87 87 S 6 9 29.96 1014 8 13 0.01 0.25
5:11 am 05:11 Cloudy with Light Rain 71 21.7 68 20 90 90 SSW 6 9 29.95 1014 6 10 0.01 0.25
5:38 am 05:38 Cloudy with Light Rain 71 21.7 68 20 90 90 NW 8 13 29.96 1014 5 8 0.06 1.52
5:53 am 05:53 Mostly Cloudy with Light Rain 71 21.7 68 20 90 90 SSE 12 19 29.95 1014 6 10 0.07 1.78
6:00 am 06:00 Partly Cloudy with Light Rain 71 21.7 68 20 90 90 S 13 20 29.94 1014 8 13 0.00 0.00
6:53 am 06:53 Partly Cloudy with Light Rain 72 22.2 69 20.6 91 91 S 13 20 29.95 1014 8 13 0.00 0.00
7:53 am 07:53 Cloudy with Heavy Rain 71 21.7 69 20.6 94 94 SSW 14 22 29.97 1015 3 5 0.09 2.29
8:48 am 08:48 Cloudy with Heavy Rain 66 19 63 17 88 88 S 9 15 29.97 1015 2 3 0.12 3.05
8:49 am 08:49 Cloudy with Heavy Rain 66 19 63 17 88 88 S 10 17 29.97 1015 2 3 0.12 3.05
8:53 am 08:53 Cloudy with Light Rain 67 19.4 63 17.2 87 87 S 13 20 29.98 1015 3 4 0.12 3.05
9:10 am 09:10 Cloudy with Light Rain 67 19.4 63 17.2 87 87 S 10 17 29.99 1016 3 5 0.04 1.02
9:53 am 09:53 Mostly Cloudy 68 20 64 17.8 87 87 S 9 15 29.98 1015 10 16 0.04 1.02
10:50 am 10:50 Cloudy with Light Rain 70 21 66 19 88 88 S 8 13 29.98 1015 10 16 0.00 0.00
10:53 am 10:53 Cloudy with Light Rain 70 21.1 65 18.3 84 84 S 7 11 29.98 1015 9 14 0.01 0.25
11:30 am 11:30 Cloudy with Heavy Rain 69 20.6 66 18.9 90 90 WNW 17 28 29.98 1015 1 2 0.17 4.32
11:37 am 11:37 Cloudy with Heavy Rain 67 19.4 64 17.8 91 91 WNW 16 26 30.01 1016 1 1 0.32 8.13
11:44 am 11:44 Cloudy with Heavy Rain 67 19.4 63 17.2 87 87 NW 15 24 29.98 1015 1 1 0.44 11.18
11:53 am 11:53 Cloudy with Rain 67 19.4 63 17.2 87 87 NNW 14 22 29.97 1015 2 3 0.47 11.94
11:56 am 11:56 Cloudy with Rain 67 19.4 64 17.8 91 91 NNW 13 20 29.97 1015 3 5 0.01 0.25
12:02 pm 12:02 Cloudy with Heavy Rain 67 19.4 64 17.8 91 91 NNW 7 11 29.98 1015 3 4 0.03 0.76
12:08 pm 12:08 Cloudy with Heavy Rain 67 19.4 65 18.3 93 93 Calm 29.98 1015 2 3 0.07 1.78
12:16 pm 12:16 Cloudy with Rain 67 19.4 64 17.8 91 91 SSW 5 7 29.98 1015 2 3 0.09 2.29
12:27 pm 12:27 Cloudy with Heavy Rain 67 19.4 64 17.8 91 91 NNE 13 20 29.98 1015 3 5 0.12 3.05
12:34 pm 12:34 Cloudy with Heavy Rain 67 19.4 64 17.8 91 91 NE 12 19 29.97 1015 3 4 0.14 3.56
12:45 pm 12:45 Cloudy with Light Rain 66 18.9 63 17.2 90 90 NNE 9 15 29.99 1016 4 6 0.16 4.06
12:53 pm 12:53 Cloudy with Light Rain 66 18.9 62 16.7 87 87 NNE 8 13 29.99 1016 9 14 0.16 4.06
1:25 pm 13:25 Cloudy with Light Rain 63 17.2 59 15 87 87 NNE 16 26 30.00 1016 10 16 0.01 0.25
1:53 pm 13:53 Cloudy with Heavy Rain 60 15.6 56 13.3 86 86 NNE 15 24 30.03 1017 3 5 0.08 2.03
2:16 pm 14:16 Cloudy with Rain 59 15 56 13.3 90 90 NNE 16 26 30.03 1017 3 4 0.07 1.78
2:24 pm 14:24 Cloudy with Light Rain 58 14.4 54 12.2 87 87 NNE 15 24 30.04 1017 7 11 0.07 1.78
2:53 pm 14:53 Cloudy with Light Rain 57 13.9 53 11.7 87 87 NNE 16 26 30.06 1018 5 8 0.10 2.54
3:25 pm 15:25 Cloudy 56 13.3 51 10.6 84 84 NNE 14 22 30.05 1018 10 16 0.00 0.00
3:53 pm 15:53 Cloudy with Light Rain 55 12.8 51 10.6 87 87 N 10 17 30.09 1019 10 16 0.01 0.25
4:53 pm 16:53 Cloudy with Light Rain 54 12.2 49 9.4 83 83 NNE 8 13 30.11 1020 10 16 0.00 0.00
5:39 pm 17:39 Cloudy with Heavy Rain 54 12.2 47 8.3 77 77 Calm 30.15 1021 3 4 0.04 1.02
5:53 pm 17:53 Cloudy with Light Rain 53 11.7 46 7.8 77 77 E 3 6 30.16 1021 3 5 0.11 2.79
6:05 pm 18:05 Cloudy 53 11.7 49 9.4 86 86 Calm 30.15 1021 10 16 0.00 0.00
6:53 pm 18:53 Cloudy 53 11.7 45 7.2 74 74 ENE 5 7 30.15 1021 10 16 0.00 0.00
7:53 pm 19:53 Cloudy 53 11.7 41 5 64 64 NE 9 15 30.14 1021 10 16 0.00 0.00
8:53 pm 20:53 Cloudy 53 11.7 34 1.1 48 48 NE 12 19 30.14 1021 10 16 0.00 0.00
9:53 pm 21:53 Cloudy 52 11.1 35 1.7 53 53 NE 9 15 30.14 1021 10 16 0.00 0.00
10:22 pm 22:22 Cloudy 52 11.1 36 2.2 55 55 NNE 8 13 30.13 1020 10 16 0.00 0.00
10:53 pm 22:53 Cloudy 51 10.6 36 2.2 56 56 NNE 7 11 30.14 1021 10 16 0.00 0.00
11:53 pm 23:53 Cloudy 50 10 36 2.2 59 59 NNE 7 11 30.13 1020 10 16 0.00 0.00

Powered by AerisWeather